CAPE
88 50 14 11 12 1 1 1 0 0 0 0 0 0 0 0 0 360 205 35 506 332 6 2 0 0 0 116 253 0 0 0 0 58 233 6 94 0 0 0 0 0 0 2 0 5 0 0 0 3 0 0 0 0
2 0 10 0 0 0 0 0 0 0 0 0 0 0 0 0 0 64 340 0 58 372 51 0 0 0 0 9 27 0 69 1 0 26 1 0 2 0 0 0 0 0 0 0 0 0 0 0 0 0 0 0 0 0
0 0 0 1 0 0 0 0 0 0 0 0 0 0 0 0 0 81 211 20 126 180 16 73 0 0 0 0 0 15 0 0 0 0 0 0 0 0 0 0 0 0 0 0 0 0 0 0 0 0 0 0 0 0
0 0 0 0 0 0 0 0 0 0 0 0 0 0 0 0 0 7 149 0 36 194 3 7 0 0 0 0 0 0 0 0 0 0 0 1 108 0 0 0 0 0 0 0 0 0 0 0 0 0 0 0 0 0
0 0 0 0 0 0 2 0 0 0 0 0 0 0 0 0 0 0 0 0 0 22 0 12 0 0 0 0 0 0 0 0 0 0 1 25 0 0 0 0 0 0 0 0 0 0 0 0 0 0 0 0 0 0
0 0 0 0 0 1 0 0 0 0 0 0 0 0 0 0 0 216 250 0 0 0 183 37 0 0 0 0 0 0 0 0 0 9 0 0 0 0 1 9 0 0 0 0 0 0 0 0 0 0 0 0 0 0
0 0 0 0 0 0 0 0 0 0 0 0 0 0 0 0 23 31 12 0 0 0 38 1 2 0 0 0 0 0 0 0 7 1 1 2 0 0 1 68 0 0 0 0 0 0 1 0 0 0 0 0 1 4
0 0 0 0 0 0 0 0 0 0 0 0 0 0 0 0 0 7 0 0 0 0 6 0 0 2 0 2 2 2 1 0 2 5 4 2 3 4 1 0 0 0 0 2 0 0 0 0 0 0 1 3 2 4
0 0 0 0 0 0 0 0 0 0 0 0 0 0 0 0 98 17 0 0 0 11 6 1 13 1 1 3 2 1 1 0 1 5 4 1 4 5 0 1 1 2 3 2 1 2 2 1 4 6 9 8 8 4
0 0 0 0 0 0 0 0 0 0 0 0 0 5 7 3 0 0 0 17 0 0 0 1 2 1 1 3 4 0 1 0 5 7 2 5 3 1 3 3 3 3 1 0 3 8 7 7 6 5 5 2 1 0
0 0 0 0 0 0 0 0 0 0 0 0 0 1 0 0 0 0 0 0 0 0 2 4 4 4 3 1 7 4 7 2 4 7 11 5 4 3 4 3 4 3 3 3 2 2 0 0 3 0 3 4 6 3
1 0 0 0 0 0 0 0 0 0 1 0 1 0 0 0 0 0 0 2 0 1 3 3 4 6 5 2 1 2 7 5 12 3 22 4 10 12 8 6 7 6 8 8 8 6 5 3 4 3 1 0 0 0
1 0 0 0 0 0 0 0 0 0 0 0 0 0 0 1 1 6 1 8 10 1 1 1 1 4 2 4 3 4 21 11 2 14 7 9 15 12 9 7 10 4 5 0 0 0 0 0 0 0 0 0 0 0
0 0 1 0 0 0 0 0 0 0 0 0 0 1 6 9 5 7 6 4 2 1 1 1 2 10 5 2 2 4 3 5 17 6 3 10 9 4 7 5 3 0 0 0 0 0 0 0 0 0 0 0 0 0
0 0 0 1 0 0 0 0 0 0 0 0 0 4 6 5 4 1 1 2 2 0 1 2 3 2 3 5 4 8 9 7 5 9 10 6 11 11 13 3 0 0 0 0 0 0 0 0 0 0 0 0 0 0
0 0 0 0 0 0 0 0 0 0 1 6 6 6 7 4 4 1 0 1 1 0 0 0 2 11 6 10 8 8 9 4 4 11 6 7 5 8 4 3 1 1 0 0 0 0 0 0 0 1 1 0 0 1
0 0 3 0 0 0 0 0 0 0 5 2 8 1 1 1 2 1 0 1 0 0 2 11 19 4 3 5 5 6 10 7 12 10 5 2 1 0 8 1 0 0 0 0 1 1 2 1 0 0 0 0 0 0
2 1 0 0 0 0 0 0 0 0 2 2 5 4 5 2 2 2 3 2 4 6 5 3 2 3 7 1 6 6 2 6 7 6 8 9 10 12 9 0 0 1 3 2 1 1 0 0 0 0 0 0 0 0
0 1 0 0 0 0 0 0 0 2 5 4 5 5 5 6 6 4 4 2 0 0 0 0 13 3 7 4 9 1 6 4 5 3 1 2 6 0 0 1 3 2 2 0 0 0 0 0 0 0 0 0 0 0
0 0 0 0 0 0 0 0 0 0 4 3 2 2 2 3 4 4 6 1 0 0 0 5 4 4 8 5 5 1 10 16 2 3 3 2 4 2 3 3 2 0 0 0 0 0 0 0 0 0 0 0 1 2
0 0 0 0 0 0 0 1 2 0 0 2 2 0 0 0 3 3 2 0 7 3 5 3 6 6 3 3 3 3 0 2 1 0 0 3 3 1 1 0 0 0 0 0 0 0 0 0 0 0 2 3 4 7
0 0 0 0 0 0 0 0 3 2 3 2 1 0 10 7 5 3 1 6 2 6 3 4 6 4 2 1 1 2 2 0 2 1 1 1 2 1 0 0 0 0 0 0 0 1 0 0 0 1 3 4 2 5
0 0 0 0 0 0 0 1 2 5 4 2 3 8 14 17 6 0 8 8 7 8 8 4 5 4 3 2 0 0 0 0 1 3 2 2 1 0 0 0 0 0 0 0 0 0 0 0 0 1 3 4 6 8
0 0 0 0 0 1 0 1 2 2 3 1 4 4 4 7 2 10 10 12 9 6 9 7 6 5 5 4 4 5 0 0 0 2 2 2 2 2 1 0 0 0 0 0 0 1 0 2 0 2 3 4 3 5
0 0 0 0 1 0 1 2 2 0 2 2 1 4 4 3 5 4 6 10 8 7 8 10 10 6 3 5 6 4 2 1 1 0 1 2 1 0 0 0 0 0 1 1 1 1 2 2 2 2 2 4 3 3
1 3 0 1 1 2 1 0 2 3 2 1 3 2 4 6 2 2 2 8 9 5 5 5 9 3 2 4 3 3 3 5 2 0 0 0 0 0 0 0 0 1 2 5 4 1 1 0 1 0 2 2 1 3
1 1 2 1 0 1 3 3 2 0 2 3 5 4 6 2 1 2 6 5 5 5 4 3 4 2 2 2 2 3 1 1 0 0 0 0 0 0 0 0 0 1 2 2 2 3 2 1 2 2 3 5 6 5
0 3 0 1 2 5 1 1 2 3 5 6 5 1 0 1 1 5 6 8 6 3 2 2 1 1 1 3 4 4 2 0 0 0 1 1 1 3 1 2 0 0 0 1 0 1 2 3 4 4 4 4 3 3
4 4 1 0 0 1 1 2 3 4 3 4 4 1 0 1 4 3 3 5 5 5 4 2 3 3 2 0 1 1 1 1 0 0 0 0 0 2 4 4 4 3 2 2 0 0 2 5 4 2 0 2 2 3
4 3 1 0 0 2 6 5 8 5 2 3 1 1 1 3 5 5 4 4 2 2 1 1 2 2 2 1 1 1 2 2 1 0 0 0 1 4 4 4 4 4 2 2 1 1 0 0 0 1 0 1 2 1
2 7 3 1 2 5 2 2 3 5 3 3 3 2 1 4 4 3 1 2 1 1 1 2 1 1 0 0 0 0 0 1 0 0 0 1 2 3 5 3 4 4 2 2 1 1 0 0 2 1 1 0 0 0
0 0 0 0 2 1 1 2 2 3 4 2 1 1 2 2 1 3 1 1 2 1 0 0 1 2 0 0 0 0 0 0 1 0 0 1 3 4 3 3 2 1 1 1 1 1 0 0 1 1 0 0 0 0
1 1 0 1 1 2 1 0 0 1 1 1 1 1 1 1 0 3 1 1 1 2 1 0 0 0 0 0 0 0 0 0 0 0 0 0 0 0 0 3 3 1 0 1 1 1 0 0 0 0 0 0 0 0
CIN
0 -1 -7 0 0 0 0 0 0 0 0 0 0 0 0 0 0 -99 -210 -372 -62 -98 -77 -39 0 0 0 -62 -58 0 0 0 0 -103 -53 -15 -8 0 0 0 0 0 0 0 0 0 0 0 0 -3 0 0 0 0
-2 -1 0 0 0 0 0 0 0 0 0 0 0 0 0 0 0 -167 -125 0 -251 -66 -99 0 0 0 0 -7 -141 0 -73 -4 -13 -91 -6 0 0 0 0 0 0 0 0 0 0 0 0 0 0 0 0 0 0 0
0 0 0 0 0 0 0 0 0 0 0 0 0 0 0 0 0 -191 -186 -254 -151 -111 -11 -83 0 0 0 0 0 -137 0 0 0 0 0 0 0 0 0 0 0 0 0 0 0 0 0 0 0 0 0 0 0 0
0 0 0 0 0 0 0 0 0 0 0 0 0 0 0 0 0 -134 -160 0 -223 -35 -9 -12 0 0 0 0 0 0 0 0 0 0 0 0 -17 0 0 0 0 0 0 0 0 0 0 0 0 0 0 0 0 0
0 0 0 0 0 0 0 0 0 0 0 0 0 0 0 0 0 0 0 0 0 -23 0 -30 0 0 0 0 0 0 0 0 0 0 0 -109 0 0 0 0 0 0 0 0 0 0 0 0 0 0 0 0 0 0
0 0 0 0 0 0 0 0 0 0 0 0 0 0 0 0 0 -79 -57 0 0 0 -105 -62 0 0 0 0 0 0 0 0 0 -138 0 0 0 0 -43 -30 0 0 0 0 0 0 0 0 0 0 0 0 0 0
0 0 0 0 0 0 0 0 0 0 0 0 0 0 0 0 -116 -132 -57 0 0 0 -199 0 0 0 0 0 0 0 0 0 -90 0 0 0 0 0 0 -9 0 0 0 0 0 0 0 0 0 0 0 0 0 0
0 0 0 0 0 0 0 0 0 0 0 0 0 0 0 0 0 -50 0 0 0 0 -45 0 0 0 0 0 0 0 0 0 0 0 0 0 0 0 0 0 0 0 0 0 0 0 0 0 0 0 0 0 0 0
0 0 0 0 0 0 0 0 0 0 0 0 0 0 0 0 -92 -217 0 0 0 -32 -179 0 -141 0 0 0 0 0 0 0 0 0 0 0 0 0 0 0 0 0 0 0 0 0 0 0 0 0 0 0 0 0
0 0 0 0 0 0 0 0 0 0 0 0 0 -135 -168 0 0 0 0 -221 0 0 0 0 0 0 0 0 0 0 0 0 0 0 0 -1 0 0 0 0 0 0 0 0 0 0 0 0 0 0 0 0 0 0
0 0 0 0 0 0 0 0 0 0 0 0 0 0 0 0 0 0 0 0 0 0 0 0 0 0 0 -1 0 0 0 0 0 0 -1 0 0 0 0 0 0 0 0 0 0 0 0 0 0 0 0 0 0 0
0 0 0 0 0 0 0 0 0 0 0 0 -40 0 0 0 0 0 0 0 0 0 0 0 0 0 0 0 0 0 0 0 0 0 0 0 0 0 0 0 0 0 0 0 0 0 0 0 0 0 0 0 0 0
0 0 0 0 0 0 0 0 0 0 0 0 0 0 0 0 0 -30 0 0 0 0 0 0 0 0 0 0 0 0 0 0 0 0 0 0 0 0 0 0 0 0 0 0 0 0 0 0 0 0 0 0 0 0
0 0 0 0 0 0 0 0 0 0 0 0 0 0 0 0 0 0 0 0 0 0 0 0 0 0 0 0 0 -1 0 0 0 0 0 0 0 0 0 0 0 0 0 0 0 0 0 0 0 0 0 0 0 0
0 0 0 0 0 0 0 0 0 0 0 0 0 0 0 0 0 0 0 0 0 0 0 0 0 0 0 0 0 0 0 0 0 0 0 0 0 0 0 0 0 0 0 0 0 0 0 0 0 0 0 0 0 0
0 0 0 0 0 0 0 0 0 0 0 0 0 0 0 0 0 0 0 0 0 0 0 0 0 0 0 0 0 0 0 0 0 0 0 0 0 0 0 0 0 0 0 0 0 0 0 0 0 0 0 0 0 0
0 0 0 0 0 0 0 0 0 0 0 0 0 0 0 0 0 0 0 0 0 0 0 0 0 0 0 0 0 0 0 0 0 0 0 0 0 0 0 0 0 0 0 0 0 0 0 0 0 0 0 0 0 0
0 0 0 0 0 0 0 0 0 0 0 0 0 0 0 0 0 0 0 0 0 0 0 0 0 0 0 0 0 0 0 0 0 0 0 0 0 0 0 0 0 0 0 0 0 0 0 0 0 0 0 0 0 0
0 0 0 0 0 0 0 0 0 0 0 0 0 0 0 0 0 0 0 0 0 0 0 0 0 0 0 0 0 0 0 -1 0 0 0 0 0 0 0 0 0 0 0 0 0 0 0 0 0 0 0 0 0 0
0 0 0 0 0 0 0 0 -7 0 0 0 0 0 0 0 0 0 0 0 0 0 0 0 0 0 0 0 0 0 0 0 0 0 0 0 0 0 0 0 0 0 0 0 0 0 0 0 0 0 0 0 0 0
0 0 0 0 0 0 0 -1 -6 0 0 0 0 0 0 0 0 0 0 0 0 0 0 0 0 0 0 0 0 0 0 0 0 0 0 0 0 0 0 0 0 0 0 0 0 0 0 0 0 0 0 0 0 0
0 0 0 0 0 0 0 0 -1 -17 -6 -1 0 -2 0 0 0 0 0 0 0 0 0 0 0 0 0 0 0 0 0 0 0 0 0 0 0 0 0 0 0 0 0 0 0 0 0 0 0 0 0 0 0 0
0 0 0 0 0 0 0 0 -1 -5 0 -1 -1 0 0 0 -1 0 -1 0 0 0 0 0 0 0 0 0 0 0 0 0 0 0 0 0 0 0 0 0 0 0 0 0 0 0 0 0 0 0 0 0 0 0
0 0 0 0 0 0 0 0 0 0 0 0 0 0 0 0 0 0 0 -1 0 0 0 0 0 0 0 0 0 0 0 0 0 0 0 0 0 0 0 0 0 0 0 0 0 0 0 0 0 0 0 0 0 0
0 0 0 0 0 0 0 0 0 0 0 0 0 0 0 0 0 0 0 0 0 0 0 0 0 0 0 0 0 0 0 0 0 0 0 0 0 0 0 0 0 0 0 0 0 0 0 0 0 0 0 0 0 0
0 0 0 0 0 0 0 0 0 0 0 0 0 0 0 0 0 0 0 0 0 0 0 0 0 0 0 0 0 0 0 0 0 0 0 0 0 0 0 0 0 0 0 0 0 0 0 0 0 0 0 0 0 0
0 0 0 -1 0 0 0 0 0 0 0 0 0 0 0 0 0 0 0 0 0 0 0 0 0 0 0 0 0 0 0 0 0 0 0 0 0 0 0 0 0 0 0 0 0 0 0 0 0 0 0 0 0 0
0 0 0 0 0 0 0 0 0 0 0 0 0 0 0 0 0 0 0 0 0 0 0 0 0 0 0 0 0 0 0 0 0 0 0 0 0 0 0 0 0 0 0 0 0 0 0 0 0 0 0 0 0 0
0 0 0 0 0 0 0 0 0 0 0 0 0 0 0 0 0 0 0 0 0 0 0 0 0 0 0 0 0 0 0 0 0 0 0 0 0 0 0 0 0 0 0 0 0 0 0 0 0 0 0 0 0 0
0 0 0 0 0 0 0 0 0 0 0 0 0 0 0 0 0 0 0 0 0 0 0 0 0 0 0 0 0 0 0 0 0 0 0 0 0 0 0 0 0 0 0 0 0 0 0 0 0 0 0 0 0 0
0 0 -1 0 0 0 0 0 0 0 0 0 0 0 0 0 0 0 0 0 0 0 0 0 0 0 0 0 0 0 0 0 0 0 0 0 0 0 0 0 0 0 0 0 0 0 0 0 0 0 0 0 0 0
0 0 0 0 0 0 0 0 0 0 0 0 0 0 0 0 0 0 0 0 0 0 0 0 0 0 0 0 0 0 0 0 0 0 0 0 0 0 0 0 0 0 0 0 0 0 0 0 0 0 0 0 0 0
0 0 0 0 0 0 0 0 0 0 0 0 0 0 0 0 0 0 0 0 0 0 0 0 0 0 0 0 0 0 0 0 0 0 0 0 0 0 0 0 0 0 0 0 0 0 0 0 0 0 0 0 0 0
Wind_Speed
19 19 15 20 16 22 23 21 19 20 19 19 20 20 21 20 17 2 4 4 2 4 5 1 3 6 5 7 7 9 7 2 2 2 2 3 2 4 3 2 4 6 6 4 3 3 5 6 6 3 5 3 6 6
13 17 18 21 20 17 17 18 18 16 14 15 17 20 22 23 16 6 4 2 4 6 5 5 7 6 4 3 7 11 2 6 6 4 1 3 3 1 0 3 3 4 3 1 6 1 4 7 6 4 5 7 8 7
23 22 21 20 19 19 17 16 15 14 14 15 19 21 24 26 13 2 6 3 4 5 4 4 4 5 7 5 4 5 2 5 5 4 5 3 4 4 4 4 2 4 4 3 2 2 6 7 8 10 9 11 12 11
23 22 22 21 19 17 15 13 11 11 13 16 20 21 21 22 12 5 5 2 3 4 5 4 2 4 9 4 1 3 8 8 7 2 3 3 3 4 2 1 3 2 7 5 5 10 6 5 3 5 9 9 9 8
24 23 23 21 18 15 14 11 11 12 14 16 21 23 23 19 14 8 6 4 3 2 5 5 4 7 9 6 9 9 11 8 3 3 3 2 3 4 2 0 2 2 3 3 3 7 5 7 10 11 10 11 11 9
24 25 21 19 16 14 12 12 16 17 18 20 23 23 23 21 16 4 5 3 2 3 5 4 2 4 7 9 13 11 6 5 3 3 3 3 2 2 4 4 6 6 6 7 6 13 10 9 8 11 10 10 10 10
24 22 20 17 16 16 15 14 15 16 20 19 22 20 14 10 4 5 2 2 3 3 4 5 3 4 5 3 4 4 5 4 3 3 3 3 3 2 3 3 8 8 9 6 10 9 4 13 7 11 12 15 19 20
22 20 18 19 15 16 18 21 21 22 24 25 23 21 21 25 17 7 2 3 3 3 4 5 3 2 7 3 3 4 3 2 5 3 2 3 2 2 2 5 8 9 9 7 10 9 9 10 12 14 14 15 19 15
19 19 19 16 15 19 21 16 13 14 14 15 17 15 5 6 2 2 7 9 2 4 4 4 5 4 2 3 2 2 2 4 1 2 2 2 2 1 2 4 6 8 6 3 8 11 13 14 15 15 14 13 13 8
17 16 17 20 18 17 12 10 11 13 10 8 5 5 4 3 7 7 2 3 6 5 6 5 1 3 1 1 2 2 2 2 3 2 1 2 3 4 3 2 3 5 6 10 10 10 12 13 12 12 11 10 9 8
18 18 18 17 17 15 12 13 13 6 8 5 5 4 1 5 1 4 4 4 3 4 4 2 2 4 2 2 3 2 2 0 3 3 2 2 3 3 4 4 4 7 9 13 16 13 12 12 10 8 7 5 4 3
21 20 19 18 19 19 17 11 11 7 3 3 5 4 2 4 4 7 3 1 3 3 1 2 2 3 2 1 3 1 3 1 3 4 2 3 4 7 6 7 11 12 13 14 12 11 9 8 6 5 4 3 3 4
22 22 20 19 18 17 14 14 18 11 5 2 4 6 4 5 6 3 5 2 2 1 1 1 3 2 3 3 4 2 3 2 2 3 1 3 6 6 5 6 9 8 8 8 8 6 5 6 6 5 5 5 3 4
20 22 22 19 17 16 16 15 10 7 7 6 5 5 3 2 3 3 3 3 2 2 2 3 3 2 1 3 1 3 1 2 4 5 4 4 7 7 5 4 9 8 4 5 6 7 6 5 5 5 4 3 4 7
16 18 17 22 14 12 13 13 11 5 5 5 3 4 3 1 3 2 2 2 2 1 1 3 3 2 2 3 2 3 4 4 2 1 3 6 8 7 7 8 7 6 3 3 5 6 4 4 5 7 7 8 9 7
5 7 14 19 12 9 10 8 7 5 5 4 6 3 2 2 2 2 2 2 1 1 1 2 3 2 2 2 3 2 2 2 3 3 5 9 10 7 7 5 4 3 4 5 6 6 6 7 6 6 7 8 7 7
11 5 18 14 6 8 13 6 5 7 4 4 4 3 2 4 3 1 2 2 3 2 2 1 2 2 3 2 3 1 1 3 6 6 6 8 9 8 7 6 4 6 6 7 8 8 7 6 5 6 7 9 9 7
6 7 15 12 2 3 4 6 4 5 6 4 3 3 2 3 2 3 2 3 1 1 0 2 3 3 2 3 2 3 3 4 6 6 4 4 6 7 6 7 7 8 8 8 7 6 5 4 5 5 7 9 8 8
6 13 17 14 5 5 5 5 4 5 4 2 2 2 3 3 3 2 1 2 2 1 3 1 2 2 2 2 3 5 5 4 4 5 4 5 6 7 8 9 9 8 7 6 5 4 5 7 6 5 6 7 7 8
8 17 20 13 5 4 5 4 2 5 3 3 2 3 2 2 2 2 3 4 3 1 3 3 3 3 3 4 4 3 6 7 8 8 6 5 6 8 7 6 5 6 6 6 6 6 4 4 5 5 6 6 7 8
8 10 12 8 5 7 6 3 5 3 2 3 2 2 2 2 2 3 3 4 3 4 3 3 3 4 5 4 4 4 4 4 5 3 6 7 6 6 6 6 6 5 5 4 4 4 5 5 5 5 6 6 6 7
5 10 4 7 6 5 5 6 3 2 3 2 2 2 2 2 3 3 4 3 3 3 3 3 2 3 5 6 7 8 8 10 11 10 12 10 7 6 5 4 4 5 5 5 4 4 4 5 5 5 5 6 7 7
6 5 5 7 6 6 3 4 3 4 2 2 1 1 2 2 3 2 2 3 3 5 3 3 5 8 8 8 9 10 9 10 9 8 7 7 7 6 6 6 5 4 4 4 4 4 4 4 5 6 6 6 7 7
5 7 7 6 7 4 2 5 3 3 2 2 1 2 2 2 2 1 3 3 5 6 4 5 4 5 6 7 7 7 7 7 8 8 6 6 6 6 5 5 5 5 4 4 3 4 4 5 5 5 6 7 7 7
7 9 5 6 4 4 5 4 4 3 3 3 2 3 2 1 2 2 3 4 6 7 7 7 6 6 5 5 5 5 8 5 6 7 6 5 6 5 5 4 4 4 4 4 4 5 5 5 5 6 7 6 8 9
8 7 5 4 3 4 3 3 4 5 3 3 3 2 1 1 3 4 3 5 5 6 7 7 4 5 6 6 5 5 5 5 5 7 6 6 5 4 3 3 2 3 5 4 5 7 7 7 7 9 8 8 8 9
6 5 4 1 2 1 2 1 1 1 3 3 2 1 0 2 3 3 3 5 4 4 5 6 6 6 6 5 5 6 6 7 8 7 6 6 6 6 5 4 5 5 5 5 5 6 7 8 8 8 8 8 7 7
4 3 4 4 2 3 3 2 3 3 3 3 2 2 2 3 3 3 4 4 4 4 6 7 8 7 6 5 5 5 6 6 6 6 5 4 4 4 5 3 3 4 4 4 5 6 7 7 7 8 8 8 7 6
4 3 1 3 2 3 3 3 2 3 3 3 1 2 3 3 3 3 4 4 3 3 4 4 5 5 5 5 6 5 5 4 4 3 4 2 2 2 4 4 4 4 4 5 6 7 8 7 7 6 7 6 5 5
4 3 1 2 1 2 2 3 2 2 3 3 4 4 4 3 4 4 4 5 5 5 4 4 4 3 4 3 3 5 5 5 6 4 4 4 4 5 4 4 5 5 5 6 6 7 6 5 5 3 4 4 4 5
3 2 0 1 1 2 3 3 2 3 3 3 4 4 4 4 3 5 6 4 4 3 3 4 4 4 4 4 4 3 2 4 4 4 3 4 4 4 5 5 5 4 5 5 6 6 6 6 5 5 5 6 5 5
3 4 3 2 1 2 4 3 2 1 2 3 3 3 3 3 3 3 4 3 3 4 4 3 3 4 3 2 1 1 1 3 4 5 6 5 5 5 5 5 4 4 5 6 6 5 6 6 6 6 6 6 6 6
0 0 2 3 2 3 3 3 3 2 3 3 3 2 3 3 4 3 2 4 4 4 4 3 2 1 2 3 4 3 3 3 6 7 8 7 6 6 6 5 4 5 6 6 6 5 6 7 6 6 6 6 6 6
Wind_Direction
173 174 174 201 164 136 146 153 161 165 166 166 165 171 180 184 185 189 87 9 3 86 114 32 136 146 141 179 148 137 139 187 132 160 167 161 150 183 204 125 182 180 162 180 138 206 269 156 146 240 16 337 331 316
188 203 181 130 134 137 145 145 147 148 150 157 165 170 176 175 172 190 110 58 41 64 73 66 69 39 15 31 122 174 36 149 164 115 131 107 137 141 90 198 189 220 230 232 218 246 94 196 295 327 323 307 308 295
119 121 127 133 132 122 118 123 138 148 156 170 177 172 174 173 156 60 110 126 94 99 110 158 96 38 36 4 332 141 194 144 156 18 136 111 136 164 163 218 170 213 178 232 243 183 247 250 268 283 281 278 291 290
112 109 104 102 102 104 110 117 127 150 164 170 173 167 162 157 134 90 109 112 69 88 115 107 352 41 343 326 24 19 119 97 107 117 108 133 124 232 181 65 237 27 167 202 251 283 289 256 290 317 316 313 302 292
94 94 93 90 93 104 113 120 131 142 150 151 152 149 147 126 116 100 100 108 89 300 128 116 127 27 19 70 89 109 125 121 133 110 104 116 109 145 59 258 244 201 11 230 269 7 317 318 346 343 323 334 337 328
91 90 86 86 85 90 87 90 107 111 108 128 133 128 124 138 165 116 55 78 57 258 117 124 88 31 36 66 70 64 59 69 75 86 100 93 69 204 149 188 73 23 3 348 302 322 316 331 42 10 25 23 44 57
83 80 83 82 75 77 75 87 86 86 87 94 105 104 105 125 71 89 130 27 334 253 106 100 101 48 356 38 47 36 34 66 46 100 71 115 115 218 165 192 16 352 344 26 2 330 132 36 40 51 67 72 68 67
81 81 78 79 81 75 72 68 72 76 84 92 95 95 99 100 106 102 168 31 307 130 69 111 88 139 1 56 80 352 55 56 34 97 112 104 102 38 142 34 5 0 344 48 24 48 77 79 71 69 77 90 84 72
81 79 73 65 64 62 59 59 65 82 96 118 132 148 121 49 99 88 336 306 30 38 103 82 132 144 22 64 44 67 5 72 2 94 96 170 138 136 43 352 1 358 357 1 70 72 78 80 81 80 79 75 81 79
72 79 80 71 55 57 51 54 61 51 61 80 44 38 63 28 331 292 19 29 27 25 33 82 65 106 336 147 82 93 32 103 154 83 129 79 84 87 46 33 332 349 2 159 100 89 93 88 94 98 104 118 123 139
65 63 62 60 51 47 38 48 43 34 38 33 47 64 62 321 117 34 62 46 357 56 37 73 67 120 10 126 112 356 120 102 167 124 225 139 128 127 91 89 78 72 75 84 104 121 124 124 130 127 129 112 77 22
66 63 57 55 52 46 39 36 51 56 41 94 105 95 71 31 60 76 43 17 39 90 74 86 76 75 94 108 105 133 97 162 169 130 166 172 114 117 119 110 104 105 108 109 112 110 104 93 83 76 70 48 34 10
58 57 54 50 49 45 47 63 79 100 163 154 64 58 19 338 53 151 167 130 125 136 121 136 83 61 124 72 78 123 165 133 138 177 177 68 125 138 144 131 121 113 102 108 106 97 84 73 58 53 67 48 359 50
58 56 50 41 39 37 40 47 56 35 44 50 41 53 12 109 59 41 44 81 91 98 92 81 76 62 56 73 62 116 77 166 203 205 181 140 148 143 136 125 141 119 85 77 78 78 74 78 84 76 57 56 34 28
63 54 47 22 17 26 30 40 47 51 59 70 33 68 59 59 42 31 32 80 42 87 109 108 78 62 49 108 51 126 167 204 239 130 106 135 139 143 137 150 134 118 123 102 88 85 79 76 86 77 62 42 31 20
58 52 20 360 17 23 7 16 35 54 55 51 51 90 85 84 54 31 32 73 15 54 37 37 100 100 86 91 173 173 197 183 143 120 127 143 148 144 149 138 125 98 106 108 98 96 80 65 56 59 53 32 11 17
52 49 342 350 10 37 33 64 52 51 64 50 45 15 25 59 65 48 33 36 333 46 83 137 138 90 126 142 147 190 108 114 127 125 138 151 154 157 152 157 136 131 118 106 95 79 71 61 56 44 23 12 357 357
49 347 356 4 44 64 49 36 76 76 71 36 66 19 39 21 53 45 31 356 328 85 75 78 131 138 149 146 163 135 114 90 115 115 118 133 155 157 158 139 129 114 103 98 98 92 78 60 47 32 7 360 339 349
45 16 10 17 46 78 60 40 18 83 62 54 67 36 50 70 48 59 53 29 35 29 123 116 88 84 98 69 101 120 133 128 125 101 74 71 113 117 116 105 103 108 104 92 85 72 67 53 38 15 5 350 342 341
12 19 4 8 15 78 71 40 16 67 67 52 38 40 54 43 4 335 21 28 15 5 53 37 41 36 24 47 35 123 141 144 136 125 106 97 103 109 110 111 107 111 106 103 75 41 46 46 31 9 6 345 337 339
24 351 351 7 50 56 72 17 63 49 82 61 9 26 50 24 34 23 19 350 50 30 55 31 65 73 64 54 49 84 90 153 131 155 147 143 123 112 106 97 89 81 79 63 51 53 31 21 3 354 345 341 343 326
356 344 30 18 67 61 72 23 44 64 57 60 61 19 52 45 30 26 323 27 52 42 22 7 60 108 79 59 63 72 87 93 92 87 92 112 123 114 97 80 89 81 69 49 33 26 8 8 358 339 337 341 326 330
346 20 42 22 72 48 46 339 70 19 76 63 22 56 69 64 26 314 63 47 70 23 6 46 57 83 94 84 78 68 70 93 92 91 94 95 96 95 90 75 61 65 65 49 10 5 3 344 353 336 337 331 333 333
13 44 33 39 33 60 0 39 36 36 68 55 53 76 68 56 344 54 74 59 22 1 33 80 92 97 82 64 61 60 63 82 91 83 82 105 102 87 82 82 73 61 32 8 5 358 352 345 334 337 342 334 342 333
59 13 24 38 27 44 43 38 15 30 52 28 25 75 66 333 69 62 53 50 25 17 10 27 46 64 84 84 80 67 34 59 89 93 62 70 99 109 96 84 81 59 17 360 5 347 343 334 334 338 333 332 337 330
71 21 38 34 30 33 16 44 36 22 9 19 46 48 343 47 65 54 56 11 24 16 9 2 40 73 58 39 61 50 36 23 77 87 71 55 53 65 72 58 34 84 22 4 343 332 327 330 327 326 322 328 329 322
68 52 34 44 32 117 123 121 157 78 36 28 35 38 323 87 93 84 90 30 23 24 22 22 39 61 70 64 60 48 46 45 57 80 91 79 68 54 44 34 25 13 343 347 326 317 316 316 316 318 318 320 326 333
64 43 35 353 38 16 43 34 33 36 31 8 293 39 49 27 83 55 35 41 52 60 60 54 50 52 56 53 59 79 77 80 89 98 108 104 87 72 55 38 27 347 323 332 324 313 313 310 308 308 314 319 321 328
54 10 339 30 36 57 43 33 43 39 357 311 352 90 93 60 29 8 22 11 19 59 74 74 68 71 74 70 60 48 34 20 20 33 26 18 10 85 15 353 344 348 340 330 324 323 320 310 322 318 318 316 322 313
37 354 40 57 49 87 76 6 28 82 48 58 93 110 102 84 41 17 36 42 50 54 45 42 30 40 51 45 73 72 53 38 31 15 353 357 351 343 325 331 332 339 333 327 327 328 331 327 315 298 311 316 324 328
344 322 72 58 76 65 7 331 291 114 96 74 43 65 90 116 111 46 39 26 29 36 63 67 69 39 50 47 34 31 69 66 27 5 340 313 309 306 314 323 319 319 318 315 317 318 328 316 318 316 318 325 327 318
16 37 340 340 77 58 18 26 12 45 70 90 83 100 131 131 96 81 17 344 53 58 45 16 46 63 47 38 359 343 317 322 341 344 328 311 303 314 312 311 305 294 302 308 307 307 312 313 309 314 312 313 322 322
358 346 24 347 338 1 36 345 38 84 63 72 67 49 51 42 84 82 98 26 29 30 24 18 10 353 354 336 319 314 289 314 320 308 310 296 287 298 305 300 296 292 300 303 304 302 302 306 302 308 305 308 311 317